| time (UTC) | temp C | wind direction | speed KPH | gust KPH | rain 1hr cm | rain 24hr cm | rain mn cm | humidity % | barometer mb |
| 20260510020018 | 13 | 0.0 | 3.2 | 0.00 | 0.00 | 0.00 | 76 | 1011.2 | |
| 20260510015018 | 13 | 338 | 1.6 | 4.8 | 0.00 | 0.00 | 0.00 | 76 | 1011.3 |
| 20260510014028 | 13 | 315 | 1.6 | 3.2 | 0.00 | 0.00 | 0.00 | 76 | 1011.3 |
| 20260510013018 | 13 | 0.0 | 3.2 | 0.00 | 0.00 | 0.00 | 75 | 1011.4 | |
| 20260510012018 | 14 | 0.0 | 3.2 | 0.00 | 0.00 | 0.00 | 75 | 1011.4 | |
| 20260510011038 | 14 | 0.0 | 3.2 | 0.00 | 0.00 | 0.00 | 74 | 1011.5 | |
| 20260510010020 | 15 | 0.0 | 3.2 | 0.00 | 0.00 | 0.00 | 74 | 1011.6 | |
| 20260510005018 | 15 | 315 | 1.6 | 4.8 | 0.00 | 0.00 | 0.00 | 73 | 1011.8 |
| 20260510004028 | 15 | 338 | 1.6 | 4.8 | 0.00 | 0.00 | 0.00 | 74 | 1012.0 |
| 20260510003018 | 15 | 338 | 1.6 | 3.2 | 0.00 | 0.00 | 0.00 | 74 | 1012.1 |
| 20260510002018 | 15 | 338 | 1.6 | 4.8 | 0.00 | 0.00 | 0.00 | 74 | 1012.1 |
| 20260510001018 | 15 | 135 | 1.6 | 4.8 | 0.00 | 0.00 | 0.00 | 75 | 1012.3 |
| 20260510000018 | 15 | 113 | 1.6 | 4.8 | 0.00 | 0.00 | 0.00 | 74 | 1012.5 |
| 20260509235028 | 15 | 0.0 | 1.6 | 0.00 | 0.00 | 0.00 | 74 | 1012.5 | |
| 20260509234018 | 15 | 315 | 1.6 | 6.4 | 0.00 | 0.00 | 0.00 | 74 | 1012.5 |
| 20260509233018 | 15 | 0.0 | 3.2 | 0.00 | 0.00 | 0.00 | 74 | 1012.6 | |
| 20260509232028 | 15 | 0.0 | 1.6 | 0.00 | 0.00 | 0.00 | 74 | 1012.7 | |
| 20260509231018 | 15 | 0.0 | 3.2 | 0.00 | 0.00 | 0.00 | 74 | 1012.7 | |
| 20260509230018 | 15 | 0.0 | 1.6 | 0.00 | 0.00 | 0.00 | 74 | 1012.8 | |
| 20260509225018 | 15 | 0.0 | 1.6 | 0.00 | 0.00 | 0.00 | 74 | 1012.8 | |
| 20260509224019 | 15 | 0.0 | 1.6 | 0.00 | 0.00 | 0.00 | 74 | 1012.9 | |
| 20260509223019 | 16 | 0.0 | 3.2 | 0.00 | 0.00 | 0.00 | 74 | 1013.0 | |
| 20260509222017 | 15 | 0.0 | 3.2 | 0.00 | 0.00 | 0.00 | 75 | 1012.8 | |
| 20260509221018 | 15 | 0.0 | 3.2 | 0.00 | 0.00 | 0.00 | 77 | 1012.9 | |
| 20260509220018 | 15 | 0.0 | 3.2 | 0.00 | 0.00 | 0.00 | 79 | 1012.8 | |
| 20260509215017 | 15 | 0.0 | 1.6 | 0.00 | 0.00 | 0.00 | 79 | 1012.8 | |
| 20260509214018 | 15 | 0.0 | 3.2 | 0.00 | 0.00 | 0.00 | 80 | 1012.8 | |
| 20260509213017 | 15 | 0.0 | 0.0 | 0.00 | 0.00 | 0.00 | 80 | 1012.9 | |
| 20260509212017 | 15 | 0.0 | 0.0 | 0.00 | 0.00 | 0.00 | 80 | 1012.9 | |
| 20260509211017 | 15 | 0.0 | 0.0 | 0.00 | 0.00 | 0.00 | 79 | 1012.9 | |
| 20260509210028 | 15 | 0.0 | 0.0 | 0.00 | 0.00 | 0.00 | 79 | 1012.9 | |
| 20260509205017 | 15 | 0.0 | 0.0 | 0.00 | 0.00 | 0.00 | 78 | 1012.8 | |
| 20260509204017 | 15 | 0.0 | 0.0 | 0.00 | 0.00 | 0.00 | 78 | 1012.8 | |
| 20260509203017 | 16 | 0.0 | 0.0 | 0.00 | 0.00 | 0.00 | 77 | 1012.7 | |
| 20260509202019 | 16 | 0.0 | 0.0 | 0.00 | 0.00 | 0.00 | 76 | 1012.6 | |
| 20260509201018 | 16 | 0.0 | 0.0 | 0.00 | 0.00 | 0.00 | 75 | 1012.7 | |
| 20260509200038 | 16 | 0.0 | 0.0 | 0.00 | 0.00 | 0.00 | 74 | 1012.7 | |
| 20260509195017 | 17 | 0.0 | 0.0 | 0.00 | 0.00 | 0.00 | 73 | 1012.6 | |
| 20260509194017 | 17 | 0.0 | 0.0 | 0.00 | 0.00 | 0.00 | 71 | 1012.5 | |
| 20260509193017 | 17 | 0.0 | 0.0 | 0.00 | 0.00 | 0.00 | 70 | 1012.4 | |
| 20260509192018 | 18 | 0.0 | 0.0 | 0.00 | 0.00 | 0.00 | 68 | 1012.3 | |
| 20260509191017 | 18 | 0.0 | 0.0 | 0.00 | 0.00 | 0.00 | 67 | 1012.3 | |
| 20260509190119 | 18 | 0.0 | 0.0 | 0.00 | 0.00 | 0.00 | 66 | 1012.3 | |
| 20260509185037 | 19 | 0.0 | 0.0 | 0.00 | 0.00 | 0.00 | 65 | 1012.3 | |
| 20260509184017 | 20 | 0.0 | 0.0 | 0.00 | 0.00 | 0.00 | 63 | 1012.1 | |
| 20260509183017 | 20 | 0.0 | 0.0 | 0.00 | 0.00 | 0.00 | 63 | 1012.0 | |
| 20260509182027 | 20 | 0.0 | 1.6 | 0.00 | 0.00 | 0.00 | 60 | 1012.1 | |
| 20260509181017 | 20 | 0.0 | 4.8 | 0.00 | 0.00 | 0.00 | 59 | 1012.0 | |
| 20260509180018 | 21 | 270 | 1.6 | 4.8 | 0.00 | 0.00 | 0.00 | 59 | 1011.8 |
| 20260509175017 | 21 | 338 | 1.6 | 4.8 | 0.00 | 0.00 | 0.00 | 57 | 1011.9 |
| 20260509174027 | 22 | 0.0 | 3.2 | 0.00 | 0.00 | 0.00 | 57 | 1011.9 | |
| 20260509173037 | 22 | 90 | 1.6 | 4.8 | 0.00 | 0.00 | 0.00 | 55 | 1012.0 |
| 20260509172017 | 22 | 203 | 1.6 | 3.2 | 0.00 | 0.00 | 0.00 | 55 | 1012.1 |
| 20260509171037 | 22 | 113 | 1.6 | 6.4 | 0.00 | 0.00 | 0.00 | 56 | 1012.2 |
| 20260509170018 | 23 | 315 | 1.6 | 3.2 | 0.00 | 0.00 | 0.00 | 54 | 1012.2 |
| 20260509165017 | 23 | 315 | 1.6 | 4.8 | 0.00 | 0.00 | 0.00 | 55 | 1012.3 |
| 20260509164017 | 23 | 338 | 1.6 | 4.8 | 0.00 | 0.00 | 0.00 | 51 | 1012.3 |
| 20260509163027 | 23 | 113 | 1.6 | 6.4 | 0.00 | 0.00 | 0.00 | 52 | 1012.4 |
| 20260509162017 | 23 | 113 | 1.6 | 4.8 | 0.00 | 0.00 | 0.00 | 53 | 1012.4 |
| 20260509161017 | 23 | 338 | 1.6 | 4.8 | 0.00 | 0.00 | 0.00 | 54 | 1012.4 |
| 20260509160017 | 23 | 113 | 1.6 | 4.8 | 0.00 | 0.00 | 0.00 | 53 | 1012.4 |
| 20260509155027 | 24 | 338 | 1.6 | 8.0 | 0.00 | 0.00 | 0.00 | 51 | 1012.6 |
| 20260509154018 | 24 | 293 | 3.2 | 11.3 | 0.00 | 0.00 | 0.00 | 51 | 1012.6 |
| 20260509153017 | 24 | 338 | 3.2 | 9.7 | 0.00 | 0.00 | 0.00 | 53 | 1012.7 |
| 20260509152018 | 24 | 338 | 3.2 | 8.0 | 0.00 | 0.00 | 0.00 | 52 | 1012.9 |
| 20260509151017 | 24 | 338 | 1.6 | 8.0 | 0.00 | 0.00 | 0.00 | 52 | 1012.9 |
| 20260509150027 | 24 | 0 | 1.6 | 6.4 | 0.00 | 0.00 | 0.00 | 56 | 1013.1 |
| 20260509145017 | 24 | 338 | 1.6 | 4.8 | 0.00 | 0.00 | 0.00 | 53 | 1013.1 |
| 20260509144028 | 24 | 135 | 1.6 | 4.8 | 0.00 | 0.00 | 0.00 | 51 | 1013.3 |
| 20260509143017 | 24 | 293 | 1.6 | 4.8 | 0.00 | 0.00 | 0.00 | 55 | 1013.1 |
| 20260509142018 | 24 | 0 | 1.6 | 6.4 | 0.00 | 0.00 | 0.00 | 54 | 1013.2 |
| 20260509141017 | 23 | 0 | 1.6 | 8.0 | 0.00 | 0.00 | 0.00 | 54 | 1013.2 |
| 20260509140027 | 23 | 315 | 3.2 | 8.0 | 0.00 | 0.00 | 0.00 | 54 | 1013.1 |
| 20260509135018 | 23 | 90 | 1.6 | 4.8 | 0.00 | 0.00 | 0.00 | 58 | 1013.1 |
| 20260509134017 | 22 | 338 | 1.6 | 6.4 | 0.00 | 0.00 | 0.00 | 56 | 1013.2 |
| 20260509133018 | 23 | 338 | 1.6 | 6.4 | 0.00 | 0.00 | 0.00 | 56 | 1013.3 |
| 20260509132017 | 23 | 338 | 1.6 | 6.4 | 0.00 | 0.00 | 0.00 | 55 | 1013.4 |
| 20260509131017 | 23 | 248 | 1.6 | 6.4 | 0.00 | 0.00 | 0.00 | 57 | 1013.4 |
| 20260509130018 | 22 | 135 | 1.6 | 4.8 | 0.00 | 0.00 | 0.00 | 54 | 1013.4 |
| 20260509125017 | 22 | 338 | 4.8 | 12.9 | 0.00 | 0.00 | 0.00 | 57 | 1013.4 |
| 20260509124016 | 23 | 338 | 3.2 | 8.0 | 0.00 | 0.00 | 0.00 | 57 | 1013.6 |
| 20260509123027 | 22 | 315 | 1.6 | 6.4 | 0.00 | 0.00 | 0.00 | 56 | 1013.7 |
| 20260509122027 | 22 | 68 | 3.2 | 6.4 | 0.00 | 0.00 | 0.00 | 57 | 1013.8 |
| 20260509121016 | 22 | 338 | 1.6 | 4.8 | 0.00 | 0.00 | 0.00 | 59 | 1013.9 |
| 20260509120018 | 22 | 338 | 3.2 | 8.0 | 0.00 | 0.00 | 0.00 | 57 | 1014.0 |
| 20260509115016 | 22 | 338 | 3.2 | 6.4 | 0.00 | 0.00 | 0.00 | 63 | 1014.1 |
| 20260509114016 | 21 | 338 | 1.6 | 6.4 | 0.00 | 0.00 | 0.00 | 57 | 1014.1 |
| 20260509113016 | 21 | 338 | 3.2 | 9.7 | 0.00 | 0.00 | 0.00 | 60 | 1014.4 |
| 20260509112016 | 21 | 315 | 1.6 | 4.8 | 0.00 | 0.00 | 0.00 | 60 | 1014.5 |
| 20260509111016 | 21 | 338 | 3.2 | 8.0 | 0.00 | 0.00 | 0.00 | 60 | 1014.6 |
| 20260509110028 | 21 | 0 | 3.2 | 6.4 | 0.00 | 0.00 | 0.00 | 61 | 1014.7 |
| 20260509105017 | 21 | 315 | 3.2 | 6.4 | 0.00 | 0.00 | 0.00 | 60 | 1014.7 |
| 20260509104016 | 21 | 338 | 3.2 | 9.7 | 0.00 | 0.00 | 0.00 | 62 | 1014.7 |
| 20260509103018 | 21 | 225 | 1.6 | 4.8 | 0.00 | 0.00 | 0.00 | 63 | 1015.0 |
| 20260509102016 | 21 | 338 | 1.6 | 4.8 | 0.00 | 0.00 | 0.00 | 66 | 1015.0 |
| 20260509101016 | 20 | 315 | 1.6 | 4.8 | 0.00 | 0.00 | 0.00 | 66 | 1015.1 |
| 20260509100026 | 20 | 113 | 1.6 | 4.8 | 0.00 | 0.00 | 0.00 | 63 | 1015.1 |
| 20260509095016 | 20 | 315 | 1.6 | 4.8 | 0.00 | 0.00 | 0.00 | 64 | 1015.1 |
| 20260509094017 | 20 | 0 | 1.6 | 4.8 | 0.00 | 0.00 | 0.00 | 70 | 1015.2 |
| 20260509093026 | 19 | 338 | 3.2 | 6.4 | 0.00 | 0.00 | 0.00 | 65 | 1015.1 |
| 20260509092016 | 19 | 225 | 1.6 | 6.4 | 0.00 | 0.00 | 0.00 | 70 | 1015.2 |
| 20260509091017 | 18 | 0 | 1.6 | 4.8 | 0.00 | 0.00 | 0.00 | 67 | 1015.2 |
| 20260509090016 | 18 | 338 | 1.6 | 4.8 | 0.00 | 0.00 | 0.00 | 71 | 1015.3 |
| 20260509085017 | 18 | 90 | 1.6 | 4.8 | 0.00 | 0.00 | 0.00 | 71 | 1015.3 |
| 20260509084026 | 17 | 0.0 | 3.2 | 0.00 | 0.00 | 0.00 | 71 | 1015.2 | |
| 20260509083018 | 17 | 315 | 3.2 | 6.4 | 0.00 | 0.00 | 0.00 | 71 | 1015.3 |
| 20260509082018 | 17 | 338 | 3.2 | 4.8 | 0.00 | 0.00 | 0.00 | 69 | 1015.5 |
| 20260509081019 | 17 | 293 | 1.6 | 6.4 | 0.00 | 0.00 | 0.00 | 74 | 1015.6 |
| 20260509080018 | 16 | 90 | 1.6 | 4.8 | 0.00 | 0.00 | 0.00 | 78 | 1015.6 |
| 20260509075019 | 15 | 338 | 1.6 | 8.0 | 0.00 | 0.00 | 0.00 | 78 | 1015.6 |
| 20260509074018 | 15 | 338 | 1.6 | 9.7 | 0.00 | 0.00 | 0.00 | 79 | 1015.6 |
| 20260509073018 | 15 | 90 | 1.6 | 3.2 | 0.00 | 0.00 | 0.00 | 83 | 1015.7 |
| 20260509072016 | 14 | 0.0 | 3.2 | 0.00 | 0.00 | 0.00 | 86 | 1015.7 | |
| 20260509071018 | 12 | 0.0 | 3.2 | 0.00 | 0.00 | 0.00 | 88 | 1015.7 | |
| 20260509070018 | 12 | 113 | 1.6 | 6.4 | 0.00 | 0.00 | 0.00 | 89 | 1015.7 |
| 20260509065019 | 11 | 338 | 1.6 | 4.8 | 0.00 | 0.00 | 0.00 | 89 | 1015.7 |
| 20260509064018 | 11 | 0.0 | 3.2 | 0.00 | 0.00 | 0.00 | 89 | 1015.7 | |
| 20260509063028 | 10 | 0.0 | 3.2 | 0.00 | 0.00 | 0.00 | 89 | 1015.7 | |
| 20260509062018 | 10 | 0.0 | 1.6 | 0.00 | 0.00 | 0.00 | 89 | 1015.7 | |
| 20260509061018 | 10 | 0.0 | 4.8 | 0.00 | 0.00 | 0.00 | 89 | 1015.7 | |
| 20260509060018 | 9 | 0.0 | 3.2 | 0.00 | 0.00 | 0.00 | 89 | 1015.5 | |
| 20260509055029 | 9 | 0.0 | 0.0 | 0.00 | 0.00 | 0.00 | 89 | 1015.6 | |
| 20260509054018 | 8 | 0.0 | 1.6 | 0.00 | 0.00 | 0.00 | 89 | 1015.4 | |
| 20260509053018 | 8 | 0.0 | 1.6 | 0.00 | 0.00 | 0.00 | 89 | 1015.5 | |
| 20260509052018 | 8 | 0.0 | 1.6 | 0.00 | 0.00 | 0.00 | 89 | 1015.4 | |
| 20260509051019 | 8 | 0.0 | 3.2 | 0.00 | 0.00 | 0.00 | 89 | 1015.3 | |
| 20260509050018 | 8 | 0.0 | 0.0 | 0.00 | 0.00 | 0.00 | 89 | 1015.3 | |
| 20260509045018 | 8 | 0.0 | 0.0 | 0.00 | 0.00 | 0.00 | 89 | 1015.3 | |
| 20260509044028 | 7 | 0.0 | 0.0 | 0.00 | 0.00 | 0.00 | 89 | 1015.2 | |
| 20260509043020 | 7 | 0.0 | 1.6 | 0.00 | 0.00 | 0.00 | 89 | 1015.1 | |
| 20260509042018 | 8 | 0.0 | 1.6 | 0.00 | 0.00 | 0.00 | 89 | 1015.1 | |
| 20260509041038 | 8 | 0.0 | 1.6 | 0.00 | 0.00 | 0.00 | 89 | 1015.2 | |
| 20260509040018 | 8 | 0.0 | 0.0 | 0.00 | 0.00 | 0.00 | 89 | 1015.3 | |
| 20260509035018 | 8 | 0.0 | 0.0 | 0.00 | 0.00 | 0.00 | 89 | 1015.4 | |
| 20260509034017 | 8 | 0.0 | 0.0 | 0.00 | 0.00 | 0.00 | 89 | 1015.3 | |
| 20260509033017 | 8 | 0.0 | 0.0 | 0.00 | 0.00 | 0.00 | 89 | 1015.4 | |
| 20260509032018 | 7 | 0.0 | 0.0 | 0.00 | 0.00 | 0.00 | 89 | 1015.5 | |
| 20260509031017 | 8 | 0.0 | 1.6 | 0.00 | 0.00 | 0.00 | 89 | 1015.5 | |
| 20260509030018 | 8 | 0.0 | 0.0 | 0.00 | 0.00 | 0.00 | 89 | 1015.6 | |
| 20260509025018 | 8 | 0.0 | 0.0 | 0.00 | 0.00 | 0.00 | 89 | 1015.6 | |
| 20260509024017 | 8 | 0.0 | 1.6 | 0.00 | 0.00 | 0.00 | 89 | 1015.7 | |
| 20260509023017 | 8 | 0.0 | 0.0 | 0.00 | 0.00 | 0.00 | 89 | 1015.6 | |
| 20260509022018 | 8 | 0.0 | 0.0 | 0.00 | 0.00 | 0.00 | 89 | 1015.6 | |
| 20260509021018 | 8 | 0.0 | 0.0 | 0.00 | 0.00 | 0.00 | 89 | 1015.6 |